Tracking 26442 objects as of 6-Dec-2022
HD Live streaming from Space Station
objects crossing your sky now

COSMOS 1541

Track COSMOS 1541 now!
COSMOS 1541 is classified as:


NORAD ID: 14790
Int'l Code: 1984-024A
Perigee: 6,361.0 km
Apogee: 34,003.3 km
Inclination: 71.8 °
Period: 717.7 minutes
Semi major axis: 26553 km
RCS: 7.9433 m2 (large)
Launch date: March 6, 1984
Source: Commonwealth of Independent States (former USSR) (CIS)
Launch site: PLESETSK MISSILE AND SPACE COMPLEX (PKMTR)
aabbcc
Your satellite tracking list
Your tracking list is empty




NASA's NSSDC Master Catalog

Two Line Element Set (TLE):
1 14790U 84024A   22339.60515007 -.00000208  00000-0  00000+0 0  9992
2 14790  71.7819 200.0588 5205090  17.6131 119.4364  2.00645189256072
Source of the keplerian elements: AFSPC